Location: Bun Machan
(52.1403°N, 7.3744°W)
Time: 18:10:01
(UTC+00:00)

Cosmos 2100 Rocket - Pass Details

Date: 14 July 2020
Orbit: 955 x 1002 km, 82.9° (Epoch: 12 August)

Event Time Altitude Azimuth Distance (km) Brightness Sun altitude
Exits shadow 02:29:49 16° 208° (SSW) 2,321 5.3 -12.1°
Maximum altitude 02:34:51 59° 285° (WNW) 1,118 4.3 -11.8°
Drops below altitude 10° 02:41:01 10° 5° (N) 2,723 7.5 -11.3°
Sets 02:43:34 0° 9° (N) 3,668 8.5 -11.1°
